Home   Weather   Jalandhar   Past weeks

Flag for India Past Weather in Jalandhar, Punjab, India — Yesterday and Last 2 Weeks

Now
59 °F

Fog.


Feels Like: 59 °F
Forecast: 47 / 77 °F
Wind: No wind

Location: Amritsar Airport

Current Time: Dec 6, 2016 at 9:54:37 pm

Latest Report: Dec 6, 2016 at 9:30 pm


Visibility: 1 mi

Pressure: 30.09 "Hg

Humidity: 100%

Dew Point: 59 °F

Location of JalandharLocation

Past Weather in Jalandhar — Graph

°F

Jalandhar Temperature Yesterday

Maximum temperature yesterday: 77 °F (at 2:00 pm)
Minimum temperature yesterday: 48 °F (at 7:00 am)
Average temperature yesterday: 60 °F

High & Low Weather Summary for the Past Weeks

 TemperatureHumidityPressure
High82 °F (Nov 25, 3:00 pm)100% (Nov 22, 12:00 am)30.18 "Hg (Nov 22, 12:00 am)
Low45 °F (Nov 28, 7:30 am)17% (Nov 28, 2:30 pm)29.65 "Hg (Nov 22, 12:00 am)
Average63 °F71%30.01 "Hg
* Reported Nov 21 9:00 pm — Dec 6 8:30 pm, Jalandhar, Weather by CustomWeather, © 2016

Note: Actual official high and low records may vary slightly from our data, if they occured in-between our weather recording intervals... More about our weather records

Advertising

Jalandhar Weather History for the Previous 24 Hours

Scroll right to see more
 ConditionsComfort  
Time TempWeatherWind HumidityBarometerVisibility
8:30 pm
Tue, Dec 6
59 °FFog.No wind100%30.09 "Hg1 mi
8:00 pm59 °FFog.No wind100%30.09 "Hg1 mi
7:30 pm61 °FFog.No wind100%30.07 "Hg1 mi
7:00 pm61 °FFog.2 mph94%30.07 "Hg1 mi
6:30 pm63 °FFog.No wind100%30.07 "Hg1 mi
6:00 pm68 °FHaze.No wind73%30.04 "Hg1 mi
5:30 pm68 °FHaze.No wind69%30.04 "Hg1 mi
5:00 pm73 °FHaze.No wind53%30.04 "Hg1 mi
4:30 pm75 °FHaze.No wind47%30.04 "Hg1 mi
4:00 pm75 °FHaze.2 mph47%30.04 "Hg1 mi
3:30 pm77 °FHaze.2 mph44%30.04 "Hg1 mi
3:00 pm77 °FHaze.2 mph42%30.04 "Hg1 mi
2:30 pm77 °FHaze.2 mph44%30.04 "Hg1 mi
1:30 pm75 °FClear.2 mph50%30.07 "Hg1 mi
1:00 pm75 °FHaze.2 mph50%30.07 "Hg1 mi
12:30 pm73 °FHaze.2 mph61%30.09 "Hg1 mi
12:00 pm72 °FFog.No wind65%30.09 "Hg1 mi
11:00 am66 °FFog.2 mph100%30.12 "Hg1 mi
10:30 am63 °FFog.2 mph100%30.12 "Hg1 mi
10:00 am55 °FFog.No wind100%30.12 "Hg1 mi
9:30 am54 °FFog.No wind100%30.12 "Hg1 mi
9:00 am50 °FFog.No wind100%30.12 "Hg0 mi
8:30 am48 °FFog.No wind100%30.09 "Hg0 mi
8:00 am46 °FFog.No wind100%30.09 "Hg0 mi
7:30 am46 °FFog.No wind100%30.09 "Hg0 mi
7:00 am46 °FFog.No wind100%30.07 "Hg0 mi
6:30 am48 °FFog.No wind100%30.07 "Hg1 mi
6:00 am48 °FFog.No wind100%30.07 "Hg1 mi
5:30 am50 °FFog.No wind100%30.07 "Hg1 mi
5:00 am50 °FFog.No wind100%30.07 "Hg1 mi
4:30 am52 °FFog.No wind100%30.07 "Hg1 mi
4:00 am52 °FFog.No wind100%30.07 "Hg1 mi
3:00 am52 °FFog.No wind100%30.07 "Hg1 mi
2:30 am52 °FFog.No wind100%30.07 "Hg1 mi
2:00 am52 °FFog.No wind100%30.07 "Hg1 mi
1:30 am52 °FFog.No wind100%30.07 "Hg1 mi
1:00 am54 °FFog.No wind100%30.07 "Hg1 mi
12:30 am54 °FFog.No wind100%30.07 "Hg1 mi
12:00 am54 °FFog.No wind100%30.07 "Hg1 mi
11:30 pm
Mon, Dec 5
54 °FFog.No wind100%30.07 "Hg1 mi
11:00 pm54 °FFog.No wind100%30.07 "Hg1 mi
10:30 pm55 °FFog.No wind94%30.07 "Hg2 mi
10:00 pm57 °FFog.No wind100%30.07 "Hg2 mi
9:30 pm57 °FFog.No wind88%30.07 "Hg2 mi
9:00 pm57 °FFog.No wind100%30.07 "Hg2 mi
Weather by CustomWeather, © 2016

See weather overviewHow to use our weather pages